Time,TemperatureF,DewpointF,PressureIn,WindDirection,WindDirectionDegrees,WindSpeedMPH,WindSpeedGustMPH,Humidity,HourlyPrecipIn,Conditions,Clouds,dailyrainin,SoftwareType,DateUTC
2013-01-30 00:00:00,-2.4,-15.3,31.42,West,270,2.0,5.0,53,0.00,,,0.00,meteohub,2013-01-30 07:00:00,
2013-01-30 00:06:00,-3.1,-16.4,31.42,West,270,3.0,5.0,52,0.00,,,0.00,meteohub,2013-01-30 07:06:00,
2013-01-30 00:11:00,-3.8,-17.3,31.42,West,270,2.0,3.0,51,0.00,,,0.00,meteohub,2013-01-30 07:11:00,
2013-01-30 00:17:00,-4.2,-17.3,31.42,West,270,0.0,3.0,52,0.00,,,0.00,meteohub,2013-01-30 07:17:00,
2013-01-30 00:22:00,-4.5,-17.3,31.42,West,270,0.0,3.0,53,0.00,,,0.00,meteohub,2013-01-30 07:22:00,
2013-01-30 00:27:00,-4.7,-17.5,31.43,SW,225,0.0,3.0,53,0.00,,,0.00,meteohub,2013-01-30 07:27:00,
2013-01-30 00:32:00,-5.1,-17.5,31.42,West,270,3.0,3.0,54,0.00,,,0.00,meteohub,2013-01-30 07:32:00,
2013-01-30 00:37:00,-5.3,-17.7,31.43,West,270,0.0,3.0,54,0.00,,,0.00,meteohub,2013-01-30 07:37:00,
2013-01-30 00:42:00,-5.1,-17.5,31.42,West,270,3.0,3.0,54,0.00,,,0.00,meteohub,2013-01-30 07:42:00,
2013-01-30 00:47:00,-4.7,-16.8,31.42,SW,225,2.0,4.0,55,0.00,,,0.00,meteohub,2013-01-30 07:47:00,
2013-01-30 00:52:00,-4.2,-16.2,31.42,NW,315,2.0,4.0,55,0.00,,,0.00,meteohub,2013-01-30 07:52:00,
2013-01-30 00:58:00,-4.0,-16.1,31.42,NW,315,2.0,4.0,55,0.00,,,0.00,meteohub,2013-01-30 07:58:00,
2013-01-30 01:04:00,-4.0,-16.4,31.42,West,270,2.0,4.0,54,0.00,,,0.00,meteohub,2013-01-30 08:04:00,
2013-01-30 01:09:00,-3.5,-15.9,31.42,NW,315,3.0,3.0,54,0.00,,,0.00,meteohub,2013-01-30 08:09:00,
2013-01-30 01:15:00,-2.4,-15.3,31.42,NE,45,8.0,8.0,53,0.00,,,0.00,meteohub,2013-01-30 08:15:00,
2013-01-30 01:20:00,-1.3,-14.6,31.42,WNW,293,4.0,4.0,52,0.00,,,0.00,meteohub,2013-01-30 08:20:00,
2013-01-30 01:26:00,-0.2,-14.8,31.42,NW,315,4.0,8.0,49,0.00,,,0.00,meteohub,2013-01-30 08:26:00,
2013-01-30 01:31:00,0.3,-15.5,31.42,NW,315,4.0,7.0,46,0.00,,,0.00,meteohub,2013-01-30 08:31:00,
2013-01-30 01:36:00,0.9,-15.2,31.42,West,270,8.0,8.0,46,0.00,,,0.00,meteohub,2013-01-30 08:36:00,
2013-01-30 01:42:00,1.2,-15.2,31.43,SW,225,4.0,10.0,45,0.00,,,0.00,meteohub,2013-01-30 08:42:00,
2013-01-30 01:47:00,1.2,-15.7,31.42,West,270,4.0,10.0,44,0.00,,,0.00,meteohub,2013-01-30 08:47:00,
2013-01-30 01:52:00,1.2,-15.7,31.43,West,270,8.0,10.0,44,0.00,,,0.00,meteohub,2013-01-30 08:52:00,
2013-01-30 01:57:00,1.4,-13.7,31.43,SW,225,3.0,8.0,48,0.00,,,0.00,meteohub,2013-01-30 08:57:00,
2013-01-30 02:02:00,1.6,-13.5,31.43,West,270,2.0,8.0,48,0.00,,,0.00,meteohub,2013-01-30 09:02:00,
2013-01-30 02:07:00,1.4,-13.7,31.43,West,270,2.0,8.0,48,0.00,,,0.00,meteohub,2013-01-30 09:07:00,
2013-01-30 02:12:00,1.4,-13.4,31.43,NW,315,2.0,8.0,49,0.00,,,0.00,meteohub,2013-01-30 09:12:00,
2013-01-30 02:17:00,1.2,-15.2,31.44,West,270,3.0,4.0,45,0.00,,,0.00,meteohub,2013-01-30 09:17:00,
2013-01-30 02:22:00,1.0,-15.3,31.44,NW,315,1.0,4.0,45,0.00,,,0.00,meteohub,2013-01-30 09:22:00,
2013-01-30 02:27:00,0.9,-15.5,31.44,West,270,3.0,4.0,45,0.00,,,0.00,meteohub,2013-01-30 09:27:00,
2013-01-30 02:32:00,0.9,-15.5,31.44,West,270,3.0,5.0,45,0.00,,,0.00,meteohub,2013-01-30 09:32:00,
2013-01-30 02:37:00,0.7,-15.7,31.44,West,270,3.0,5.0,45,0.00,,,0.00,meteohub,2013-01-30 09:37:00,
2013-01-30 02:42:00,0.9,-15.5,31.45,West,270,4.0,6.0,45,0.00,,,0.00,meteohub,2013-01-30 09:42:00,
2013-01-30 02:47:00,1.0,-15.3,31.44,SW,225,6.0,6.0,45,0.00,,,0.00,meteohub,2013-01-30 09:47:00,
2013-01-30 02:52:00,1.2,-15.2,31.44,SW,225,4.0,8.0,45,0.00,,,0.00,meteohub,2013-01-30 09:52:00,
2013-01-30 02:57:00,1.4,-13.4,31.44,NNW,338,7.0,8.0,49,0.00,,,0.00,meteohub,2013-01-30 09:57:00,
2013-01-30 03:03:00,1.4,-13.4,31.45,NW,315,5.0,8.0,49,0.00,,,0.00,meteohub,2013-01-30 10:03:00,
2013-01-30 03:08:00,1.8,-13.4,31.45,West,270,2.0,7.0,48,0.00,,,0.00,meteohub,2013-01-30 10:08:00,
2013-01-30 03:14:00,1.8,-13.9,31.44,NW,315,4.0,7.0,47,0.00,,,0.00,meteohub,2013-01-30 10:14:00,
2013-01-30 03:19:00,2.1,-13.5,31.45,North,0,7.0,7.0,47,0.00,,,0.00,meteohub,2013-01-30 10:19:00,
2013-01-30 03:25:00,2.5,-13.2,31.45,NNE,23,4.0,11.0,47,0.00,,,0.00,meteohub,2013-01-30 10:25:00,
2013-01-30 03:30:00,2.5,-13.5,31.45,West,270,4.0,11.0,46,0.00,,,0.00,meteohub,2013-01-30 10:30:00,
2013-01-30 03:36:00,2.7,-13.4,31.46,West,270,6.0,10.0,46,0.00,,,0.00,meteohub,2013-01-30 10:36:00,
2013-01-30 03:42:00,2.7,-13.9,31.46,NW,315,6.0,10.0,45,0.00,,,0.00,meteohub,2013-01-30 10:42:00,
2013-01-30 03:47:00,2.7,-13.9,31.46,NW,315,5.0,9.0,45,0.00,,,0.00,meteohub,2013-01-30 10:47:00,
2013-01-30 03:52:00,2.7,-13.9,31.46,NW,315,2.0,9.0,45,0.00,,,0.00,meteohub,2013-01-30 10:52:00,
2013-01-30 03:57:00,2.5,-14.1,31.46,West,270,3.0,9.0,45,0.00,,,0.00,meteohub,2013-01-30 10:57:00,
2013-01-30 04:02:00,2.5,-14.1,31.47,NNW,338,8.0,9.0,45,0.00,,,0.00,meteohub,2013-01-30 11:02:00,
2013-01-30 04:08:00,2.8,-13.7,31.47,West,270,12.0,13.0,45,0.00,,,0.00,meteohub,2013-01-30 11:08:00,
2013-01-30 04:14:00,3.0,-13.5,31.47,NW,315,4.0,13.0,45,0.00,,,0.00,meteohub,2013-01-30 11:14:00,
2013-01-30 04:19:00,3.0,-13.5,31.47,NW,315,4.0,13.0,45,0.00,,,0.00,meteohub,2013-01-30 11:19:00,
2013-01-30 04:25:00,3.2,-13.7,31.46,NE,45,4.0,12.0,44,0.00,,,0.00,meteohub,2013-01-30 11:25:00,
2013-01-30 04:30:00,3.6,-13.5,31.47,NW,315,6.0,9.0,44,0.00,,,0.00,meteohub,2013-01-30 11:30:00,
2013-01-30 04:36:00,3.6,-13.5,31.47,NW,315,5.0,9.0,44,0.00,,,0.00,meteohub,2013-01-30 11:36:00,
2013-01-30 04:42:00,3.7,-13.4,31.47,SW,225,4.0,9.0,44,0.00,,,0.00,meteohub,2013-01-30 11:42:00,
2013-01-30 04:47:00,3.7,-13.4,31.47,NE,45,3.0,8.0,44,0.00,,,0.00,meteohub,2013-01-30 11:47:00,
2013-01-30 04:53:00,3.9,-13.2,31.47,West,270,3.0,8.0,44,0.00,,,0.00,meteohub,2013-01-30 11:53:00,
2013-01-30 04:59:00,3.9,-13.2,31.47,West,270,5.0,10.0,44,0.00,,,0.00,meteohub,2013-01-30 11:59:00,
2013-01-30 05:04:00,3.9,-13.2,31.47,NW,315,4.0,10.0,44,0.00,,,0.00,meteohub,2013-01-30 12:04:00,
2013-01-30 05:10:00,4.1,-13.0,31.47,NW,315,6.0,7.0,44,0.00,,,0.00,meteohub,2013-01-30 12:10:00,
2013-01-30 05:15:00,4.1,-13.0,31.47,NW,315,7.0,7.0,44,0.00,,,0.00,meteohub,2013-01-30 12:15:00,
2013-01-30 05:21:00,4.1,-13.0,31.47,NW,315,3.0,8.0,44,0.00,,,0.00,meteohub,2013-01-30 12:21:00,
2013-01-30 05:26:00,3.9,-13.2,31.47,SW,225,2.0,8.0,44,0.00,,,0.00,meteohub,2013-01-30 12:26:00,
2013-01-30 05:32:00,3.9,-12.6,31.47,North,0,3.0,10.0,45,0.00,,,0.00,meteohub,2013-01-30 12:32:00,
2013-01-30 05:37:00,3.9,-12.6,31.48,SW,225,2.0,10.0,45,0.00,,,0.00,meteohub,2013-01-30 12:37:00,
2013-01-30 05:42:00,3.7,-12.8,31.48,NW,315,7.0,7.0,45,0.00,,,0.00,meteohub,2013-01-30 12:42:00,
2013-01-30 05:48:00,3.9,-12.3,31.48,NW,315,4.0,7.0,46,0.00,,,0.00,meteohub,2013-01-30 12:48:00,
2013-01-30 05:53:00,3.9,-12.3,31.48,NW,315,5.0,7.0,46,0.00,,,0.00,meteohub,2013-01-30 12:53:00,
2013-01-30 05:59:00,3.9,-11.7,31.48,South,180,4.0,7.0,47,0.00,,,0.00,meteohub,2013-01-30 12:59:00,
2013-01-30 06:05:00,3.9,-11.7,31.49,SW,225,2.0,6.0,47,0.00,,,0.00,meteohub,2013-01-30 13:05:00,
2013-01-30 06:10:00,3.9,-11.7,31.49,NW,315,1.0,4.0,47,0.00,,,0.00,meteohub,2013-01-30 13:10:00,
2013-01-30 06:16:00,3.9,-11.4,31.49,NW,315,1.0,4.0,48,0.00,,,0.00,meteohub,2013-01-30 13:16:00,
2013-01-30 06:22:00,3.9,-11.4,31.49,South,180,2.0,4.0,48,0.00,,,0.00,meteohub,2013-01-30 13:22:00,
2013-01-30 06:27:00,3.9,-11.4,31.49,South,180,0.0,4.0,48,0.00,,,0.00,meteohub,2013-01-30 13:27:00,
2013-01-30 06:32:00,3.9,-11.4,31.49,South,180,0.0,4.0,48,0.00,,,0.00,meteohub,2013-01-30 13:32:00,
2013-01-30 06:37:00,4.1,-11.2,31.49,SW,225,3.0,4.0,48,0.00,,,0.00,meteohub,2013-01-30 13:37:00,
2013-01-30 06:42:00,4.1,-10.8,31.49,West,270,3.0,4.0,49,0.00,,,0.00,meteohub,2013-01-30 13:42:00,
2013-01-30 06:47:00,4.1,-10.8,31.49,NW,315,2.0,4.0,49,0.00,,,0.00,meteohub,2013-01-30 13:47:00,
2013-01-30 06:52:00,4.1,-10.8,31.50,NW,315,1.0,3.0,49,0.00,,,0.00,meteohub,2013-01-30 13:52:00,
2013-01-30 06:57:00,4.1,-10.8,31.49,NW,315,2.0,3.0,49,0.00,,,0.00,meteohub,2013-01-30 13:57:00,
2013-01-30 07:02:00,4.1,-10.8,31.50,NW,315,5.0,5.0,49,0.00,,,0.00,meteohub,2013-01-30 14:02:00,
2013-01-30 07:07:00,4.1,-10.8,31.50,NW,315,5.0,5.0,49,0.00,,,0.00,meteohub,2013-01-30 14:07:00,
2013-01-30 07:12:00,4.3,-10.3,31.50,NW,315,2.0,5.0,50,0.00,,,0.00,meteohub,2013-01-30 14:12:00,
2013-01-30 07:17:00,4.5,-10.1,31.50,NE,45,2.0,5.0,50,0.00,,,0.00,meteohub,2013-01-30 14:17:00,
2013-01-30 07:22:00,4.5,-10.1,31.50,NW,315,3.0,5.0,50,0.00,,,0.00,meteohub,2013-01-30 14:22:00,
2013-01-30 07:27:00,4.5,-9.8,31.50,South,180,2.0,3.0,51,0.00,,,0.00,meteohub,2013-01-30 14:27:00,
2013-01-30 07:32:00,4.5,-9.8,31.50,West,270,2.0,3.0,51,0.00,,,0.00,meteohub,2013-01-30 14:32:00,
2013-01-30 07:37:00,4.6,-9.6,31.50,West,270,5.0,6.0,51,0.00,,,0.00,meteohub,2013-01-30 14:37:00,
2013-01-30 07:42:00,4.6,-9.0,31.50,SE,135,2.0,8.0,52,0.00,,,0.00,meteohub,2013-01-30 14:42:00,
2013-01-30 07:47:00,4.6,-8.7,31.51,East,90,2.0,8.0,53,0.00,,,0.00,meteohub,2013-01-30 14:47:00,
2013-01-30 07:52:00,4.8,-8.5,31.51,North,0,0.0,8.0,53,0.00,,,0.00,meteohub,2013-01-30 14:52:00,
2013-01-30 07:57:00,5.0,-8.3,31.51,North,0,2.0,4.0,53,0.00,,,0.00,meteohub,2013-01-30 14:57:00,
2013-01-30 08:02:00,5.4,-8.1,31.51,NW,315,2.0,4.0,53,0.00,,,0.00,meteohub,2013-01-30 15:02:00,
2013-01-30 08:07:00,5.5,-8.0,31.51,NW,315,3.0,4.0,53,0.00,,,0.00,meteohub,2013-01-30 15:07:00,
2013-01-30 08:12:00,5.7,-8.1,31.51,SW,225,7.0,7.0,52,0.00,,,0.00,meteohub,2013-01-30 15:12:00,
2013-01-30 08:17:00,5.9,-8.0,31.51,NE,45,2.0,7.0,52,0.00,,,0.00,meteohub,2013-01-30 15:17:00,
2013-01-30 08:22:00,6.1,-7.8,31.51,West,270,6.0,7.0,52,0.00,,,0.00,meteohub,2013-01-30 15:22:00,
2013-01-30 08:27:00,6.1,-8.1,31.52,SW,225,2.0,8.0,51,0.00,,,0.00,meteohub,2013-01-30 15:27:00,
2013-01-30 08:32:00,6.1,-8.1,31.52,NE,45,6.0,8.0,51,0.00,,,0.00,meteohub,2013-01-30 15:32:00,
2013-01-30 08:37:00,6.1,-7.8,31.52,NW,315,4.0,8.0,52,0.00,,,0.00,meteohub,2013-01-30 15:37:00,
2013-01-30 08:42:00,6.1,-7.4,31.52,East,90,4.0,6.0,53,0.00,,,0.00,meteohub,2013-01-30 15:42:00,
2013-01-30 08:47:00,6.1,-7.4,31.52,NE,45,3.0,6.0,53,0.00,,,0.00,meteohub,2013-01-30 15:47:00,
2013-01-30 08:52:00,6.3,-7.2,31.52,WNW,293,3.0,5.0,53,0.00,,,0.00,meteohub,2013-01-30 15:52:00,
2013-01-30 08:57:00,6.3,-7.2,31.51,West,270,2.0,5.0,53,0.00,,,0.00,meteohub,2013-01-30 15:57:00,
2013-01-30 09:02:00,6.3,-7.2,31.51,West,270,2.0,5.0,53,0.00,,,0.00,meteohub,2013-01-30 16:02:00,
2013-01-30 09:07:00,6.8,-7.1,31.50,SW,225,0.0,4.0,52,0.00,,,0.00,meteohub,2013-01-30 16:07:00,
2013-01-30 09:13:00,7.2,-6.3,31.51,East,90,4.0,4.0,53,0.00,,,0.00,meteohub,2013-01-30 16:13:00,
2013-01-30 09:19:00,7.3,-6.2,31.51,NE,45,5.0,5.0,53,0.00,,,0.00,meteohub,2013-01-30 16:19:00,
2013-01-30 09:24:00,7.7,-5.8,31.51,NE,45,3.0,5.0,53,0.00,,,0.00,meteohub,2013-01-30 16:24:00,
2013-01-30 09:30:00,7.9,-5.6,31.51,NW,315,3.0,5.0,53,0.00,,,0.00,meteohub,2013-01-30 16:30:00,
2013-01-30 09:35:00,8.2,-5.8,31.51,NE,45,3.0,5.0,52,0.00,,,0.00,meteohub,2013-01-30 16:35:00,
2013-01-30 09:40:00,8.8,-5.6,31.51,East,90,4.0,8.0,51,0.00,,,0.00,meteohub,2013-01-30 16:40:00,
2013-01-30 09:46:00,9.3,-6.0,31.50,NE,45,5.0,8.0,49,0.00,,,0.00,meteohub,2013-01-30 16:46:00,
2013-01-30 09:51:00,9.9,-6.3,31.51,NW,315,2.0,8.0,47,0.00,,,0.00,meteohub,2013-01-30 16:51:00,
2013-01-30 09:57:00,10.4,-4.5,31.51,East,90,4.0,8.0,50,0.00,,,0.00,meteohub,2013-01-30 16:57:00,
2013-01-30 10:02:00,10.8,-4.2,31.51,NE,45,11.0,11.0,50,0.00,,,0.00,meteohub,2013-01-30 17:02:00,
2013-01-30 10:07:00,10.8,-4.7,31.52,NE,45,3.0,11.0,49,0.00,,,0.00,meteohub,2013-01-30 17:07:00,
2013-01-30 10:13:00,10.8,-5.1,31.52,NE,45,4.0,11.0,48,0.00,,,0.00,meteohub,2013-01-30 17:13:00,
2013-01-30 10:18:00,10.8,-5.1,31.52,West,270,2.0,11.0,48,0.00,,,0.00,meteohub,2013-01-30 17:18:00,
2013-01-30 10:23:00,10.8,-5.1,31.52,North,0,3.0,10.0,48,0.00,,,0.00,meteohub,2013-01-30 17:23:00,
2013-01-30 10:29:00,11.1,-4.4,31.52,NE,45,5.0,10.0,49,0.00,,,0.00,meteohub,2013-01-30 17:29:00,
2013-01-30 10:34:00,11.5,-4.0,31.52,NNE,23,11.0,11.0,49,0.00,,,0.00,meteohub,2013-01-30 17:34:00,
2013-01-30 10:40:00,11.7,-4.2,31.52,ENE,68,3.0,10.0,48,0.00,,,0.00,meteohub,2013-01-30 17:40:00,
2013-01-30 10:45:00,11.8,-4.0,31.51,East,90,5.0,11.0,48,0.00,,,0.00,meteohub,2013-01-30 17:45:00,
2013-01-30 10:51:00,12.2,-4.2,31.51,NE,45,5.0,9.0,47,0.00,,,0.00,meteohub,2013-01-30 17:51:00,
2013-01-30 10:56:00,12.6,-3.8,31.51,NNE,23,8.0,9.0,47,0.00,,,0.00,meteohub,2013-01-30 17:56:00,
2013-01-30 11:01:00,12.7,-3.6,31.51,NE,45,5.0,8.0,47,0.00,,,0.00,meteohub,2013-01-30 18:01:00,
2013-01-30 11:07:00,12.7,-3.6,31.50,NE,45,5.0,8.0,47,0.00,,,0.00,meteohub,2013-01-30 18:07:00,
2013-01-30 11:12:00,14.0,-3.5,31.51,North,0,3.0,8.0,45,0.00,,,0.00,meteohub,2013-01-30 18:12:00,
2013-01-30 11:17:00,14.2,-3.3,31.51,North,0,6.0,6.0,45,0.00,,,0.00,meteohub,2013-01-30 18:17:00,
2013-01-30 11:22:00,14.4,-3.6,31.51,North,0,3.0,6.0,44,0.00,,,0.00,meteohub,2013-01-30 18:22:00,
2013-01-30 11:27:00,14.7,-3.3,31.50,East,90,0.0,6.0,44,0.00,,,0.00,meteohub,2013-01-30 18:27:00,
2013-01-30 11:32:00,15.3,-2.7,31.50,NE,45,3.0,6.0,44,0.00,,,0.00,meteohub,2013-01-30 18:32:00,
2013-01-30 11:37:00,15.8,-2.7,31.50,NE,45,4.0,5.0,43,0.00,,,0.00,meteohub,2013-01-30 18:37:00,
2013-01-30 11:42:00,15.6,-2.4,31.49,ENE,68,8.0,8.0,44,0.00,,,0.00,meteohub,2013-01-30 18:42:00,
2013-01-30 11:48:00,16.0,-2.6,31.50,NE,45,10.0,10.0,43,0.00,,,0.00,meteohub,2013-01-30 18:48:00,
2013-01-30 11:53:00,16.0,-2.6,31.49,North,0,5.0,8.0,43,0.00,,,0.00,meteohub,2013-01-30 18:53:00,
2013-01-30 11:59:00,16.2,-2.4,31.49,East,90,5.0,10.0,43,0.00,,,0.00,meteohub,2013-01-30 18:59:00,
2013-01-30 12:04:00,16.7,-1.8,31.49,East,90,3.0,10.0,43,0.00,,,0.00,meteohub,2013-01-30 19:04:00,
2013-01-30 12:10:00,16.9,-1.3,31.49,SSW,203,4.0,7.0,44,0.00,,,0.00,meteohub,2013-01-30 19:10:00,
2013-01-30 12:16:00,17.6,-1.1,31.49,SW,225,2.0,8.0,43,0.00,,,0.00,meteohub,2013-01-30 19:16:00,
2013-01-30 12:21:00,18.5,-0.8,31.49,ENE,68,15.0,15.0,42,0.00,,,0.00,meteohub,2013-01-30 19:21:00,
2013-01-30 12:27:00,18.1,-1.1,31.50,NNE,23,5.0,15.0,42,0.00,,,0.00,meteohub,2013-01-30 19:27:00,
2013-01-30 12:32:00,18.0,-0.8,31.49,SE,135,4.0,15.0,43,0.00,,,0.00,meteohub,2013-01-30 19:32:00,
2013-01-30 12:37:00,18.7,0.3,31.49,North,0,3.0,15.0,44,0.00,,,0.00,meteohub,2013-01-30 19:37:00,
2013-01-30 12:42:00,20.7,4.1,31.49,East,90,2.0,10.0,48,0.00,,,0.00,meteohub,2013-01-30 19:42:00,
2013-01-30 12:47:00,22.1,5.0,31.49,NW,315,5.0,5.0,47,0.00,,,0.00,meteohub,2013-01-30 19:47:00,
2013-01-30 12:52:00,21.6,3.6,31.49,SW,225,3.0,8.0,45,0.00,,,0.00,meteohub,2013-01-30 19:52:00,
2013-01-30 12:57:00,21.4,3.4,31.49,North,0,6.0,8.0,45,0.00,,,0.00,meteohub,2013-01-30 19:57:00,
2013-01-30 13:02:00,21.2,3.2,31.49,East,90,5.0,8.0,45,0.00,,,0.00,meteohub,2013-01-30 20:02:00,
2013-01-30 13:07:00,21.2,3.2,31.49,East,90,5.0,6.0,45,0.00,,,0.00,meteohub,2013-01-30 20:07:00,
2013-01-30 13:12:00,22.8,4.6,31.49,North,0,1.0,8.0,45,0.00,,,0.00,meteohub,2013-01-30 20:12:00,
2013-01-30 13:17:00,24.1,5.4,31.49,West,270,4.0,10.0,44,0.00,,,0.00,meteohub,2013-01-30 20:17:00,
2013-01-30 13:22:00,24.4,5.7,31.49,SE,135,5.0,10.0,44,0.00,,,0.00,meteohub,2013-01-30 20:22:00,
2013-01-30 13:27:00,23.9,4.6,31.49,South,180,4.0,15.0,43,0.00,,,0.00,meteohub,2013-01-30 20:27:00,
2013-01-30 13:32:00,23.4,4.1,31.49,North,0,5.0,15.0,43,0.00,,,0.00,meteohub,2013-01-30 20:32:00,
2013-01-30 13:37:00,23.4,4.6,31.49,WSW,248,4.0,10.0,44,0.00,,,0.00,meteohub,2013-01-30 20:37:00,
2013-01-30 13:42:00,23.0,4.8,31.49,NW,315,5.0,10.0,45,0.00,,,0.00,meteohub,2013-01-30 20:42:00,
2013-01-30 13:47:00,23.4,5.2,31.49,West,270,12.0,12.0,45,0.00,,,0.00,meteohub,2013-01-30 20:47:00,
2013-01-30 13:52:00,22.5,5.4,31.48,East,90,6.0,12.0,47,0.00,,,0.00,meteohub,2013-01-30 20:52:00,
2013-01-30 13:57:00,21.6,4.8,31.49,East,90,5.0,12.0,48,0.00,,,0.00,meteohub,2013-01-30 20:57:00,
2013-01-30 14:03:00,21.9,5.7,31.49,West,270,5.0,12.0,49,0.00,,,0.00,meteohub,2013-01-30 21:03:00,
2013-01-30 14:08:00,22.5,6.3,31.48,NW,315,5.0,6.0,49,0.00,,,0.00,meteohub,2013-01-30 21:08:00,
2013-01-30 14:13:00,22.6,5.9,31.49,West,270,6.0,11.0,48,0.00,,,0.00,meteohub,2013-01-30 21:13:00,
2013-01-30 14:18:00,23.0,5.7,31.49,West,270,8.0,11.0,47,0.00,,,0.00,meteohub,2013-01-30 21:18:00,
2013-01-30 14:24:00,22.8,6.1,31.49,NW,315,5.0,11.0,48,0.00,,,0.00,meteohub,2013-01-30 21:24:00,
2013-01-30 14:29:00,22.5,6.3,31.49,North,0,9.0,10.0,49,0.00,,,0.00,meteohub,2013-01-30 21:29:00,
2013-01-30 14:35:00,21.9,6.1,31.49,NW,315,7.0,10.0,50,0.00,,,0.00,meteohub,2013-01-30 21:35:00,
2013-01-30 14:40:00,21.4,5.2,31.50,SE,135,4.0,11.0,49,0.00,,,0.00,meteohub,2013-01-30 21:40:00,
2013-01-30 14:46:00,21.4,5.5,31.50,North,0,5.0,11.0,50,0.00,,,0.00,meteohub,2013-01-30 21:46:00,
2013-01-30 14:52:00,21.6,5.4,31.51,NW,315,1.0,11.0,49,0.00,,,0.00,meteohub,2013-01-30 21:52:00,
2013-01-30 14:57:00,21.0,5.4,31.51,North,0,6.0,8.0,50,0.00,,,0.00,meteohub,2013-01-30 21:57:00,
2013-01-30 15:02:00,20.3,5.0,31.51,NE,45,6.0,8.0,51,0.00,,,0.00,meteohub,2013-01-30 22:02:00,
2013-01-30 15:08:00,19.0,3.0,31.51,North,0,3.0,7.0,49,0.00,,,0.00,meteohub,2013-01-30 22:08:00,
2013-01-30 15:13:00,18.9,3.7,31.51,NE,45,3.0,7.0,51,0.00,,,0.00,meteohub,2013-01-30 22:13:00,
2013-01-30 15:19:00,18.9,3.7,31.52,East,90,5.0,7.0,51,0.00,,,0.00,meteohub,2013-01-30 22:19:00,
2013-01-30 15:24:00,19.2,4.5,31.51,South,180,3.0,7.0,52,0.00,,,0.00,meteohub,2013-01-30 22:24:00,
2013-01-30 15:30:00,18.7,3.9,31.52,South,180,2.0,6.0,52,0.00,,,0.00,meteohub,2013-01-30 22:30:00,
2013-01-30 15:35:00,18.1,3.6,31.52,East,90,6.0,6.0,52,0.00,,,0.00,meteohub,2013-01-30 22:35:00,
2013-01-30 15:40:00,17.4,3.2,31.52,NNE,23,6.0,6.0,53,0.00,,,0.00,meteohub,2013-01-30 22:40:00,
2013-01-30 15:46:00,16.7,3.0,31.53,East,90,5.0,8.0,54,0.00,,,0.00,meteohub,2013-01-30 22:46:00,
2013-01-30 15:51:00,16.2,3.2,31.52,SE,135,9.0,9.0,56,0.00,,,0.00,meteohub,2013-01-30 22:51:00,
2013-01-30 15:57:00,15.8,4.1,31.52,NE,45,8.0,11.0,59,0.00,,,0.00,meteohub,2013-01-30 22:57:00,
2013-01-30 16:02:00,15.6,5.4,31.52,East,90,4.0,13.0,63,0.00,,,0.00,meteohub,2013-01-30 23:02:00,
2013-01-30 16:07:00,15.6,5.5,31.52,ENE,68,8.0,13.0,64,0.00,,,0.00,meteohub,2013-01-30 23:07:00,
2013-01-30 16:12:00,15.4,5.7,31.53,NE,45,7.0,13.0,65,0.00,,,0.00,meteohub,2013-01-30 23:12:00,
2013-01-30 16:17:00,15.6,6.3,31.53,ENE,68,6.0,11.0,66,0.00,,,0.00,meteohub,2013-01-30 23:17:00,
2013-01-30 16:22:00,15.8,6.1,31.52,NE,45,7.0,11.0,65,0.00,,,0.00,meteohub,2013-01-30 23:22:00,
2013-01-30 16:27:00,15.8,5.7,31.53,North,0,7.0,8.0,64,0.00,,,0.00,meteohub,2013-01-30 23:27:00,
2013-01-30 16:32:00,15.8,5.4,31.53,East,90,8.0,8.0,63,0.00,,,0.00,meteohub,2013-01-30 23:32:00,
2013-01-30 16:37:00,15.6,5.5,31.53,NE,45,10.0,10.0,64,0.00,,,0.00,meteohub,2013-01-30 23:37:00,
2013-01-30 16:43:00,15.6,5.5,31.54,East,90,8.0,10.0,64,0.00,,,0.00,meteohub,2013-01-30 23:43:00,
2013-01-30 16:48:00,15.6,5.5,31.53,ENE,68,8.0,10.0,64,0.00,,,0.00,meteohub,2013-01-30 23:48:00,
2013-01-30 16:54:00,15.6,5.5,31.54,NE,45,11.0,11.0,64,0.00,,,0.00,meteohub,2013-01-30 23:54:00,
2013-01-30 16:59:00,15.4,5.4,31.54,NE,45,8.0,10.0,64,0.00,,,0.00,meteohub,2013-01-30 23:59:00,
2013-01-30 17:05:00,15.4,5.4,31.55,NE,45,8.0,11.0,64,0.00,,,0.00,meteohub,2013-01-31 00:05:00,
2013-01-30 17:10:00,15.3,5.5,31.55,SE,135,4.0,11.0,65,0.00,,,0.00,meteohub,2013-01-31 00:10:00,
2013-01-30 17:15:00,15.1,5.4,31.55,SE,135,4.0,8.0,65,0.00,,,0.00,meteohub,2013-01-31 00:15:00,
2013-01-30 17:20:00,15.1,5.4,31.54,NE,45,4.0,8.0,65,0.00,,,0.00,meteohub,2013-01-31 00:20:00,
2013-01-30 17:26:00,14.9,5.2,31.55,East,90,6.0,8.0,65,0.00,,,0.00,meteohub,2013-01-31 00:26:00,
2013-01-30 17:31:00,14.9,5.0,31.55,East,90,3.0,8.0,64,0.00,,,0.00,meteohub,2013-01-31 00:31:00,
2013-01-30 17:37:00,14.9,5.0,31.55,NNE,23,5.0,8.0,64,0.00,,,0.00,meteohub,2013-01-31 00:37:00,
2013-01-30 17:42:00,14.9,5.0,31.54,NE,45,8.0,13.0,64,0.00,,,0.00,meteohub,2013-01-31 00:42:00,
2013-01-30 17:47:00,14.9,5.0,31.54,ESE,113,9.0,13.0,64,0.00,,,0.00,meteohub,2013-01-31 00:47:00,
2013-01-30 17:52:00,14.7,4.8,31.55,NE,45,6.0,13.0,64,0.00,,,0.00,meteohub,2013-01-31 00:52:00,
2013-01-30 17:57:00,14.9,4.6,31.54,ENE,68,6.0,10.0,63,0.00,,,0.00,meteohub,2013-01-31 00:57:00,
2013-01-30 18:03:00,14.9,4.6,31.55,NE,45,8.0,13.0,63,0.00,,,0.00,meteohub,2013-01-31 01:03:00,
2013-01-30 18:08:00,15.1,4.8,31.55,East,90,6.0,13.0,63,0.00,,,0.00,meteohub,2013-01-31 01:08:00,
2013-01-30 18:14:00,15.3,5.0,31.55,North,0,9.0,11.0,63,0.00,,,0.00,meteohub,2013-01-31 01:14:00,
2013-01-30 18:19:00,15.3,4.6,31.55,NW,315,5.0,11.0,62,0.00,,,0.00,meteohub,2013-01-31 01:19:00,
2013-01-30 18:24:00,15.4,4.5,31.56,NE,45,6.0,9.0,61,0.00,,,0.00,meteohub,2013-01-31 01:24:00,
2013-01-30 18:30:00,15.3,4.3,31.56,West,270,4.0,11.0,61,0.00,,,0.00,meteohub,2013-01-31 01:30:00,
2013-01-30 18:35:00,15.1,4.5,31.57,SE,135,3.0,11.0,62,0.00,,,0.00,meteohub,2013-01-31 01:35:00,
2013-01-30 18:41:00,15.1,4.8,31.57,NE,45,6.0,8.0,63,0.00,,,0.00,meteohub,2013-01-31 01:41:00,
2013-01-30 18:46:00,14.9,4.6,31.57,NE,45,4.0,10.0,63,0.00,,,0.00,meteohub,2013-01-31 01:46:00,
2013-01-30 18:52:00,15.1,4.8,31.57,NE,45,7.0,10.0,63,0.00,,,0.00,meteohub,2013-01-31 01:52:00,
2013-01-30 18:57:00,15.3,4.6,31.57,NE,45,10.0,11.0,62,0.00,,,0.00,meteohub,2013-01-31 01:57:00,
2013-01-30 19:02:00,15.3,4.3,31.57,NW,315,5.0,13.0,61,0.00,,,0.00,meteohub,2013-01-31 02:02:00,
2013-01-30 19:07:00,15.3,4.3,31.57,NW,315,5.0,13.0,61,0.00,,,0.00,meteohub,2013-01-31 02:07:00,
2013-01-30 19:12:00,15.4,3.7,31.57,NE,45,4.0,13.0,59,0.00,,,0.00,meteohub,2013-01-31 02:12:00,
2013-01-30 19:17:00,15.6,3.6,31.57,East,90,2.0,9.0,58,0.00,,,0.00,meteohub,2013-01-31 02:17:00,
2013-01-30 19:22:00,15.8,3.2,31.57,NW,315,4.0,9.0,57,0.00,,,0.00,meteohub,2013-01-31 02:22:00,
2013-01-30 19:27:00,15.8,2.8,31.57,NE,45,10.0,11.0,56,0.00,,,0.00,meteohub,2013-01-31 02:27:00,
2013-01-30 19:32:00,15.8,2.8,31.57,SE,135,8.0,11.0,56,0.00,,,0.00,meteohub,2013-01-31 02:32:00,
2013-01-30 19:37:00,15.8,2.8,31.57,SW,225,2.0,11.0,56,0.00,,,0.00,meteohub,2013-01-31 02:37:00,
2013-01-30 19:42:00,15.8,2.8,31.58,NW,315,11.0,11.0,56,0.00,,,0.00,meteohub,2013-01-31 02:42:00,
2013-01-30 19:47:00,15.8,2.8,31.58,NW,315,7.0,11.0,56,0.00,,,0.00,meteohub,2013-01-31 02:47:00,
2013-01-30 19:52:00,15.6,3.6,31.58,SE,135,6.0,11.0,58,0.00,,,0.00,meteohub,2013-01-31 02:52:00,
2013-01-30 19:57:00,15.4,3.7,31.58,South,180,3.0,11.0,59,0.00,,,0.00,meteohub,2013-01-31 02:57:00,
2013-01-30 20:02:00,15.4,4.1,31.58,NE,45,3.0,9.0,60,0.00,,,0.00,meteohub,2013-01-31 03:02:00,
2013-01-30 20:07:00,15.4,4.1,31.58,SE,135,4.0,8.0,60,0.00,,,0.00,meteohub,2013-01-31 03:07:00,
2013-01-30 20:13:00,15.6,4.3,31.58,North,0,5.0,8.0,60,0.00,,,0.00,meteohub,2013-01-31 03:13:00,
2013-01-30 20:18:00,15.6,4.3,31.58,East,90,5.0,8.0,60,0.00,,,0.00,meteohub,2013-01-31 03:18:00,
2013-01-30 20:24:00,15.6,4.3,31.58,West,270,4.0,7.0,60,0.00,,,0.00,meteohub,2013-01-31 03:24:00,
2013-01-30 20:29:00,15.4,4.5,31.59,NW,315,6.0,8.0,61,0.00,,,0.00,meteohub,2013-01-31 03:29:00,
2013-01-30 20:35:00,15.4,4.8,31.58,East,90,5.0,8.0,62,0.00,,,0.00,meteohub,2013-01-31 03:35:00,
2013-01-30 20:40:00,15.4,4.8,31.59,North,0,2.0,6.0,62,0.00,,,0.00,meteohub,2013-01-31 03:40:00,
2013-01-30 20:46:00,15.4,4.8,31.59,NNE,23,6.0,6.0,62,0.00,,,0.00,meteohub,2013-01-31 03:46:00,
2013-01-30 20:52:00,15.4,5.2,31.59,SE,135,3.0,6.0,63,0.00,,,0.00,meteohub,2013-01-31 03:52:00,
2013-01-30 20:57:00,15.6,5.4,31.59,NW,315,4.0,6.0,63,0.00,,,0.00,meteohub,2013-01-31 03:57:00,
2013-01-30 21:02:00,15.6,5.4,31.59,North,0,7.0,7.0,63,0.00,,,0.00,meteohub,2013-01-31 04:02:00,
2013-01-30 21:07:00,15.6,5.4,31.59,North,0,7.0,7.0,63,0.00,,,0.00,meteohub,2013-01-31 04:07:00,
2013-01-30 21:12:00,15.8,5.2,31.60,West,270,6.0,11.0,62,0.00,,,0.00,meteohub,2013-01-31 04:12:00,
2013-01-30 21:17:00,15.8,5.2,31.60,NE,45,4.0,11.0,62,0.00,,,0.00,meteohub,2013-01-31 04:17:00,
2013-01-30 21:22:00,16.0,5.2,31.60,North,0,6.0,11.0,62,0.00,,,0.00,meteohub,2013-01-31 04:22:00,
2013-01-30 21:27:00,16.0,5.2,31.60,NE,45,4.0,8.0,62,0.00,,,0.00,meteohub,2013-01-31 04:27:00,
2013-01-30 21:32:00,16.0,5.2,31.60,NE,45,3.0,8.0,62,0.00,,,0.00,meteohub,2013-01-31 04:32:00,
2013-01-30 21:37:00,16.0,5.2,31.60,East,90,2.0,8.0,62,0.00,,,0.00,meteohub,2013-01-31 04:37:00,
2013-01-30 21:42:00,16.2,5.4,31.60,West,270,7.0,8.0,62,0.00,,,0.00,meteohub,2013-01-31 04:42:00,
2013-01-30 21:47:00,16.2,5.0,31.60,ENE,68,5.0,10.0,61,0.00,,,0.00,meteohub,2013-01-31 04:47:00,
2013-01-30 21:52:00,16.2,5.0,31.60,NE,45,6.0,10.0,61,0.00,,,0.00,meteohub,2013-01-31 04:52:00,
2013-01-30 21:57:00,16.3,5.2,31.60,ENE,68,4.0,10.0,61,0.00,,,0.00,meteohub,2013-01-31 04:57:00,
2013-01-30 22:00:00,16.5,5.4,31.60,NE,45,4.0,10.0,61,0.00,,,0.00,meteohub,2013-01-31 05:00:00,
2013-01-30 22:02:00,16.5,5.4,31.60,North,0,8.0,8.0,61,0.00,,,0.00,meteohub,2013-01-31 05:02:00,
2013-01-30 22:03:00,16.5,5.4,31.60,ENE,68,5.0,8.0,61,0.00,,,0.00,meteohub,2013-01-31 05:03:00,
2013-01-30 22:04:00,16.5,5.4,31.60,NE,45,4.0,8.0,61,0.00,,,0.00,meteohub,2013-01-31 05:04:00,
2013-01-30 22:09:00,16.5,5.4,31.60,NE,45,10.0,10.0,61,0.00,,,0.00,meteohub,2013-01-31 05:09:00,
2013-01-30 22:15:00,16.7,5.5,31.60,NE,45,4.0,10.0,61,0.00,,,0.00,meteohub,2013-01-31 05:15:00,
2013-01-30 22:21:00,16.7,5.2,31.60,East,90,4.0,10.0,60,0.00,,,0.00,meteohub,2013-01-31 05:21:00,
2013-01-30 22:26:00,16.7,5.2,31.60,East,90,4.0,7.0,60,0.00,,,0.00,meteohub,2013-01-31 05:26:00,
2013-01-30 22:32:00,16.7,5.5,31.60,East,90,5.0,7.0,61,0.00,,,0.00,meteohub,2013-01-31 05:32:00,
2013-01-30 22:37:00,16.7,5.5,31.60,NE,45,3.0,6.0,61,0.00,,,0.00,meteohub,2013-01-31 05:37:00,
2013-01-30 22:42:00,16.7,5.5,31.60,SW,225,2.0,6.0,61,0.00,,,0.00,meteohub,2013-01-31 05:42:00,
2013-01-30 22:47:00,16.7,5.5,31.60,North,0,4.0,6.0,61,0.00,,,0.00,meteohub,2013-01-31 05:47:00,
2013-01-30 22:52:00,16.7,5.5,31.60,NE,45,5.0,8.0,61,0.00,,,0.00,meteohub,2013-01-31 05:52:00,
2013-01-30 22:57:00,16.7,5.5,31.60,NE,45,4.0,8.0,61,0.00,,,0.00,meteohub,2013-01-31 05:57:00,
2013-01-30 23:03:00,16.7,5.5,31.61,East,90,6.0,7.0,61,0.00,,,0.00,meteohub,2013-01-31 06:03:00,
2013-01-30 23:08:00,16.7,5.5,31.61,North,0,4.0,7.0,61,0.00,,,0.00,meteohub,2013-01-31 06:08:00,
2013-01-30 23:14:00,16.7,5.9,31.61,East,90,8.0,8.0,62,0.00,,,0.00,meteohub,2013-01-31 06:14:00,
2013-01-30 23:19:00,16.7,5.9,31.61,NNE,23,5.0,9.0,62,0.00,,,0.00,meteohub,2013-01-31 06:19:00,
2013-01-30 23:24:00,16.9,6.1,31.61,SW,225,6.0,9.0,62,0.00,,,0.00,meteohub,2013-01-31 06:24:00,
2013-01-30 23:30:00,16.9,6.1,31.61,SW,225,4.0,9.0,62,0.00,,,0.00,meteohub,2013-01-31 06:30:00,
2013-01-30 23:35:00,16.9,6.1,31.61,East,90,4.0,6.0,62,0.00,,,0.00,meteohub,2013-01-31 06:35:00,
2013-01-30 23:41:00,16.9,6.1,31.61,WNW,293,2.0,8.0,62,0.00,,,0.00,meteohub,2013-01-31 06:41:00,
2013-01-30 23:46:00,16.7,5.9,31.62,West,270,2.0,8.0,62,0.00,,,0.00,meteohub,2013-01-31 06:46:00,
2013-01-30 23:52:00,16.7,5.9,31.61,East,90,2.0,8.0,62,0.00,,,0.00,meteohub,2013-01-31 06:52:00,
2013-01-30 23:57:00,16.7,5.9,31.61,SE,135,4.0,5.0,62,0.00,,,0.00,meteohub,2013-01-31 06:57:00,